Location: Newark
(21.1200°N, 73.4000°E)
Time: 18:34:43
(UTC+00:00)

Vanguard 2 Rocket - Pass Details

Date: 25 January 2020
Orbit: 554 x 3326 km, 32.9° (Epoch: 16 February)

Event Time Altitude Azimuth Distance (km) Brightness Sun altitude
Exits shadow 01:13:21 - 302° (WNW) 2,209 8.3 -7.9°
Reaches altitude 10° 01:13:37 10° 305° (NW) 2,130 8.2 -7.9°
Maximum altitude 01:17:44 26° 3° (N) 1,623 8.1 -7.0°
Drops below altitude 10° 01:23:39 10° 58° (ENE) 3,150 10.3 -5.6°
Sets 01:27:55 0° 70° (ENE) 4,625 11.4 -4.7°
